Location: Hickory_CSC
(35.7330°N, 81.3330°W)
Time: 14:10:00
(UTC-04:00)

ISS - All Passes

Search period start: 30 July 2015 00:00
Search period end: 09 August 2015 00:00
Orbit: 402 x 403 km, 51.6° (Epoch: 30 July)

Date Brightness Start Highest point End Pass type
(mag) Time Alt. Az. Time Alt. Az. Time Alt. Az.
30 Jul - 04:05:14 10° N 04:06:32 12° NNE 04:07:54 10° NE visible
30 Jul - 05:40:12 10° NW 05:43:28 77° NE 05:46:43 10° SE visible
30 Jul - 22:17:19 10° SW 22:20:33 66° NW 22:23:47 10° NE visible
30 Jul - 23:56:31 10° NW 23:57:31 11° NNW 23:58:28 10° N visible
31 Jul - 04:47:21 10° NNW 04:50:24 36° NE 04:53:28 10° ESE visible
31 Jul - 06:24:22 10° W 06:26:39 17° SW 06:28:51 10° S daylight
31 Jul - 21:24:20 10° SSW 21:27:31 54° SE 21:30:42 10° ENE visible
31 Jul - 23:01:57 10° WNW 23:04:10 17° NNW 23:06:21 10° NNE visible
01 Aug - 03:54:38 10° NNW 03:57:10 21° NNE 03:59:44 10° E visible
01 Aug - 05:30:39 10° WNW 05:33:41 37° SW 05:36:43 10° SSE visible
01 Aug - 20:31:49 10° S 20:34:29 24° SE 20:37:12 10° ENE daylight
01 Aug - 22:07:59 10° W 22:10:50 27° NW 22:13:42 10° NNE visible
02 Aug - 03:02:08 10° N 03:03:46 13° NNE 03:05:28 10° ENE night (unlit)
02 Aug - 04:37:21 10° NW 04:40:37 86° SW 04:43:51 10° SE visible
02 Aug - 19:40:21 10° SSE 19:41:26 11° SE 19:42:40 10° ESE daylight
02 Aug - 21:14:21 10° WSW 21:17:33 54° NW 21:20:45 10° NE visible
03 Aug - 03:44:14 10° NW 03:47:23 43° NE 03:50:29 10° ESE night (unlit)
03 Aug - 05:21:38 10° W 05:23:32 14° SW 05:25:20 10° SSW night (unlit)
03 Aug - 20:21:04 10° SW 20:24:17 67° SE 20:27:32 10° NE daylight
03 Aug - 21:59:01 10° WNW 22:01:01 15° NNW 22:02:58 10° N visible
04 Aug - 02:51:16 10° NNW 02:53:57 23° NNE 02:56:40 10° E night (unlit)
04 Aug - 04:27:28 10° WNW 04:30:23 30° SW 04:33:16 10° SSE night (unlit)
04 Aug - 19:28:12 10° SSW 19:31:03 29° SE 19:33:56 10° ENE daylight
04 Aug - 21:04:43 10° W 21:07:28 24° NNW 21:10:11 10° NNE visible
05 Aug - 01:58:29 10° N 02:00:23 15° NNE 02:02:20 10° ENE night (unlit)
05 Aug - 03:33:53 10° NW 03:37:07 70° SW 03:40:21 10° SE night (unlit)
05 Aug - 18:36:06 10° SSE 18:37:48 14° SE 18:39:36 10° E daylight
05 Aug - 20:10:48 10° WSW 20:13:56 45° NW 20:17:05 10° NE daylight
06 Aug - 02:40:31 10° NW 02:43:42 51° NE 02:46:53 10° ESE night (unlit)
06 Aug - 04:18:26 10° WSW 04:19:49 12° SW 04:21:04 10° SSW night (unlit)
06 Aug - 19:17:13 10° SW 19:20:27 82° SE 19:23:43 10° NE daylight
06 Aug - 20:55:29 10° WNW 20:57:15 14° NNW 20:58:57 10° N visible
07 Aug - 01:47:18 10° NNW 01:50:07 26° NNE 01:52:56 10° E night (unlit)
07 Aug - 03:23:43 10° WNW 03:26:28 25° SW 03:29:11 10° S night (unlit)
07 Aug - 18:24:01 10° SSW 18:27:00 34° SE 18:30:00 10° ENE daylight
07 Aug - 20:00:51 10° W 20:03:28 21° NNW 20:06:03 10° NNE daylight
08 Aug - 00:54:16 10° NNW 00:56:22 16° NNE 00:58:30 10° ENE visible
08 Aug - 02:29:49 10° NW 02:33:01 58° SW 02:36:12 10° SE night (unlit)
08 Aug - 17:31:28 10° S 17:33:32 16° SE 17:35:41 10° E daylight
08 Aug - 19:06:39 10° WSW 19:09:43 38° NW 19:12:48 10° NE daylight
